CST,Max TemperatureF,Mean TemperatureF,Min TemperatureF,Max Dew PointF,MeanDew PointF,Min DewpointF,Max Humidity, Mean Humidity, Min Humidity, Max Sea Level PressureIn, Mean Sea Level PressureIn, Min Sea Level PressureIn, Max VisibilityMiles, Mean VisibilityMiles, Min VisibilityMiles, Max Wind SpeedMPH, Mean Wind SpeedMPH, Max Gust SpeedMPH,PrecipitationIn, CloudCover, Events, WindDirDegrees
2013-11-1,78,61,44,52,45,39,100,62,26,30.10,29.91,29.84,10,10,4,15,4,,0.00,0,,327
2013-11-2,68,55,42,43,37,30,81,54,24,30.30,30.21,30.10,10,10,4,17,8,25,0.00,0,,329
2013-11-3,68,52,37,46,39,36,93,64,33,30.22,30.14,30.02,10,8,1,17,5,22,0.00,0,,156
2013-11-4,60,56,53,57,52,45,94,84,67,30.12,30.07,30.01,10,9,4,14,10,18,0.23,7,Rain,148
2013-11-5,68,64,59,68,62,57,100,96,88,30.10,30.01,29.95,10,8,2,16,11,25,0.52,8,Rain,151
2013-11-6,69,55,41,68,45,36,94,77,51,30.38,30.20,29.96,10,10,7,23,12,28,0.07,4,Rain,331
2013-11-7,62,50,37,43,39,34,93,72,39,30.51,30.43,30.38,10,10,10,9,5,,0.00,0,,283
2013-11-8,68,54,41,46,41,36,100,63,30,30.38,30.26,30.14,10,10,10,18,5,23,0.00,0,,196
2013-11-9,68,60,53,50,48,45,82,67,49,30.26,30.17,30.13,10,10,10,17,8,17,0.00,7,,153
2013-11-10,71,60,46,50,45,36,88,65,27,30.37,30.30,30.26,10,10,10,8,4,,0.00,4,,120
2013-11-11,75,60,44,55,50,43,94,72,44,30.30,30.25,30.18,10,10,10,12,2,,0.00,3,,219
2013-11-12,62,48,33,57,30,19,88,59,30,30.70,30.60,30.30,10,10,7,26,17,39,0.00,2,Rain,351
2013-11-13,51,38,26,28,25,21,86,64,33,30.70,30.58,30.37,10,10,10,10,6,,0.00,0,,146
2013-11-14,57,44,30,39,31,27,93,61,36,30.37,30.19,30.02,10,10,10,15,6,18,0.00,3,,159
2013-11-15,68,57,46,54,50,41,94,79,56,30.02,29.93,29.85,10,9,7,15,9,18,0.00,4,,158
2013-11-16,75,65,55,68,62,55,100,82,65,29.86,29.76,29.66,10,10,10,25,14,32,0.00,4,,186
2013-11-17,82,71,59,68,52,32,88,53,23,30.06,29.82,29.68,10,10,10,22,14,29,0.00,2,,276
2013-11-18,71,58,46,41,33,27,58,40,23,30.23,30.17,30.06,10,8,1,15,9,22,0.00,0,,50
2013-11-19,64,58,51,41,33,25,67,43,24,30.22,30.13,30.04,10,10,10,18,9,25,0.00,4,,124
2013-11-20,64,54,44,50,39,32,71,53,36,30.05,29.99,29.90,10,10,10,18,11,23,0.00,5,Rain,151
2013-11-21,71,55,39,68,55,37,100,84,68,30.26,30.04,29.97,10,8,3,28,8,34,0.23,8,Rain-Thunderstorm,169
2013-11-22,39,36,33,37,34,32,100,96,87,30.47,30.39,30.27,10,7,1,29,20,34,0.42,8,Rain-Snow-Thunderstorm,338
2013-11-23,42,38,33,36,31,23,100,82,49,30.58,30.53,30.45,10,9,3,22,16,28,0.00,6,Rain,6
2013-11-24,33,32,32,30,25,19,93,77,60,30.62,30.52,30.35,10,10,5,16,10,21,0.04,5,Rain-Snow-Thunderstorm,14
2013-11-25,35,34,32,34,33,30,100,95,87,30.36,30.25,30.18,10,9,2,12,5,,0.20,8,Rain-Snow,72
2013-11-26,51,42,33,34,31,25,93,70,44,30.38,30.22,30.15,10,10,10,23,12,30,0.00,4,,337
2013-11-27,46,36,26,25,18,14,74,52,29,30.47,30.39,30.35,10,10,10,16,8,22,0.00,0,,342
2013-11-28,55,40,26,28,25,18,87,64,33,30.46,30.39,30.34,10,10,10,10,4,,0.00,0,,180
2013-11-29,59,42,26,39,31,23,93,70,36,30.52,30.43,30.35,10,10,10,10,4,17,0.00,0,,169
2013-11-30,64,50,37,50,44,34,94,76,56,30.36,30.24,30.14,10,10,10,22,9,28,0.00,0,,194